| time (UTC) | temp F | wind direction | speed MPH | gust MPH | rain 1hr in | rain 24hr in | rain mn in | humidity % | barometer mb |
| 20260510080216 | 51 | 171 | 2.0 | 4.0 | 0.00 | 0.00 | 0.00 | 46 | 1014.4 |
| 20260510075403 | 51 | 171 | 2.0 | 5.0 | 0.00 | 0.00 | 0.00 | 44 | 1014.4 |
| 20260510074504 | 51 | 167 | 2.0 | 4.0 | 0.00 | 0.00 | 0.00 | 45 | 1014.6 |
| 20260510073603 | 51 | 171 | 2.0 | 4.0 | 0.00 | 0.00 | 0.00 | 45 | 1014.3 |
| 20260510072703 | 52 | 165 | 1.0 | 6.0 | 0.00 | 0.00 | 0.00 | 45 | 1014.6 |
| 20260510071803 | 51 | 164 | 2.0 | 6.0 | 0.00 | 0.00 | 0.00 | 45 | 1014.6 |
| 20260510070903 | 51 | 172 | 2.0 | 4.0 | 0.00 | 0.00 | 0.00 | 47 | 1014.7 |
| 20260510070003 | 52 | 176 | 3.0 | 6.0 | 0.00 | 0.00 | 0.00 | 49 | 1014.7 |
| 20260510065403 | 52 | 170 | 3.0 | 6.0 | 0.00 | 0.00 | 0.00 | 48 | 1014.7 |
| 20260510064503 | 51 | 168 | 2.0 | 5.0 | 0.00 | 0.00 | 0.00 | 50 | 1014.6 |
| 20260510063603 | 51 | 168 | 2.0 | 5.0 | 0.00 | 0.00 | 0.00 | 50 | 1014.6 |
| 20260510062703 | 51 | 141 | 1.0 | 4.0 | 0.00 | 0.00 | 0.00 | 52 | 1014.4 |
| 20260510061803 | 51 | 176 | 0.0 | 2.0 | 0.00 | 0.00 | 0.00 | 53 | 1014.6 |
| 20260510060903 | 52 | 151 | 1.0 | 4.0 | 0.00 | 0.00 | 0.00 | 51 | 1014.7 |
| 20260510060003 | 52 | 168 | 1.0 | 3.0 | 0.00 | 0.00 | 0.00 | 51 | 1014.7 |
| 20260510055617 | 52 | 175 | 1.0 | 4.0 | 0.00 | 0.00 | 0.00 | 51 | 1014.7 |
| 20260510054503 | 53 | 185 | 1.0 | 4.0 | 0.00 | 0.00 | 0.00 | 46 | 1014.8 |
| 20260510053818 | 54 | 168 | 1.0 | 4.0 | 0.00 | 0.00 | 0.00 | 43 | 1014.8 |
| 20260510052703 | 54 | 154 | 2.0 | 5.0 | 0.00 | 0.00 | 0.00 | 43 | 1014.8 |
| 20260510052016 | 54 | 155 | 2.0 | 5.0 | 0.00 | 0.00 | 0.00 | 45 | 1014.7 |
| 20260510050903 | 54 | 163 | 3.0 | 8.0 | 0.00 | 0.00 | 0.00 | 45 | 1014.9 |
| 20260510050003 | 54 | 171 | 2.0 | 5.0 | 0.00 | 0.00 | 0.00 | 47 | 1015.0 |
| 20260510045403 | 53 | 154 | 2.0 | 6.0 | 0.00 | 0.00 | 0.00 | 49 | 1015.0 |
| 20260510044503 | 53 | 155 | 2.0 | 5.0 | 0.00 | 0.00 | 0.00 | 48 | 1014.7 |
| 20260510043603 | 52 | 165 | 1.0 | 4.0 | 0.00 | 0.00 | 0.00 | 56 | 1014.9 |
| 20260510042917 | 52 | 158 | 1.0 | 4.0 | 0.00 | 0.00 | 0.00 | 56 | 1014.7 |
| 20260510041803 | 52 | 176 | 1.0 | 4.0 | 0.00 | 0.00 | 0.00 | 56 | 1014.9 |
| 20260510040903 | 52 | 153 | 1.0 | 4.0 | 0.00 | 0.00 | 0.00 | 56 | 1015.0 |
| 20260510040004 | 52 | 155 | 0.0 | 2.0 | 0.00 | 0.00 | 0.00 | 55 | 1014.7 |
| 20260510035403 | 53 | 139 | 0.0 | 2.0 | 0.00 | 0.00 | 0.00 | 55 | 1014.8 |
| 20260510034503 | 54 | 142 | 0.0 | 2.0 | 0.00 | 0.00 | 0.00 | 52 | 1014.7 |
| 20260510033603 | 55 | 178 | 1.0 | 2.0 | 0.00 | 0.00 | 0.00 | 51 | 1014.6 |
| 20260510032916 | 56 | 154 | 1.0 | 3.0 | 0.00 | 0.00 | 0.00 | 48 | 1014.7 |
| 20260510031803 | 56 | 149 | 1.0 | 3.0 | 0.00 | 0.00 | 0.00 | 46 | 1014.8 |
| 20260510030903 | 57 | 155 | 0.0 | 2.0 | 0.00 | 0.00 | 0.00 | 47 | 1014.7 |
| 20260510030004 | 58 | 164 | 1.0 | 3.0 | 0.00 | 0.00 | 0.00 | 43 | 1014.7 |
| 20260510025618 | 59 | 172 | 1.0 | 3.0 | 0.00 | 0.00 | 0.00 | 42 | 1014.6 |
| 20260510024504 | 60 | 183 | 2.0 | 7.0 | 0.00 | 0.00 | 0.00 | 40 | 1014.6 |
| 20260510023603 | 60 | 168 | 2.0 | 5.0 | 0.00 | 0.00 | 0.00 | 39 | 1014.4 |
| 20260510022703 | 61 | 162 | 2.0 | 6.0 | 0.00 | 0.00 | 0.00 | 38 | 1014.8 |
| 20260510021803 | 61 | 175 | 1.0 | 4.0 | 0.00 | 0.00 | 0.00 | 37 | 1014.8 |
| 20260510020903 | 61 | 180 | 2.0 | 6.0 | 0.00 | 0.00 | 0.00 | 35 | 1015.2 |
| 20260510020003 | 62 | 198 | 2.0 | 9.0 | 0.00 | 0.01 | 0.00 | 35 | 1015.1 |
| 20260510015403 | 62 | 186 | 2.0 | 9.0 | 0.00 | 0.02 | 0.00 | 35 | 1015.5 |
| 20260510014503 | 62 | 194 | 2.0 | 9.0 | 0.00 | 0.02 | 0.00 | 35 | 1015.5 |
| 20260510013603 | 62 | 186 | 2.0 | 7.0 | 0.00 | 0.05 | 0.00 | 36 | 1015.5 |
| 20260510012703 | 62 | 194 | 1.0 | 5.0 | 0.00 | 0.06 | 0.00 | 36 | 1015.6 |
| 20260510011803 | 62 | 192 | 2.0 | 7.0 | 0.00 | 0.09 | 0.00 | 35 | 1015.3 |
| 20260510010904 | 62 | 175 | 3.0 | 7.0 | 0.00 | 0.11 | 0.00 | 36 | 1015.5 |
| 20260510010003 | 63 | 173 | 3.0 | 7.0 | 0.00 | 0.15 | 0.00 | 33 | 1015.7 |
| 20260510005403 | 63 | 201 | 2.0 | 5.0 | 0.00 | 0.18 | 0.00 | 36 | 1015.8 |
| 20260510004503 | 63 | 190 | 2.0 | 8.0 | 0.00 | 0.25 | 0.00 | 36 | 1015.9 |
| 20260510003818 | 63 | 170 | 3.0 | 11.0 | 0.00 | 0.25 | 0.00 | 36 | 1015.9 |
| 20260510002703 | 64 | 165 | 4.0 | 7.0 | 0.00 | 0.25 | 0.00 | 34 | 1015.8 |
| 20260510001803 | 63 | 171 | 4.0 | 9.0 | 0.00 | 0.25 | 0.00 | 36 | 1016.1 |
| 20260510000903 | 63 | 177 | 4.0 | 16.0 | 0.00 | 0.25 | 0.00 | 36 | 1016.1 |
| 20260510000003 | 64 | 171 | 3.0 | 11.0 | 0.00 | 0.25 | 0.00 | 36 | 1016.1 |
| 20260509235403 | 64 | 164 | 3.0 | 9.0 | 0.00 | 0.25 | 0.00 | 37 | 1016.1 |
| 20260509234503 | 64 | 178 | 3.0 | 9.0 | 0.00 | 0.25 | 0.00 | 31 | 1016.1 |
| 20260509233603 | 64 | 183 | 2.0 | 7.0 | 0.00 | 0.25 | 0.00 | 37 | 1016.4 |
| 20260509232703 | 64 | 175 | 2.0 | 8.0 | 0.00 | 0.25 | 0.00 | 38 | 1016.7 |
| 20260509231803 | 65 | 163 | 4.0 | 9.0 | 0.00 | 0.25 | 0.00 | 33 | 1016.6 |
| 20260509230903 | 64 | 168 | 3.0 | 6.0 | 0.00 | 0.25 | 0.00 | 38 | 1016.7 |
| 20260509230217 | 64 | 163 | 3.0 | 6.0 | 0.00 | 0.25 | 0.00 | 35 | 1016.7 |
| 20260509225403 | 64 | 177 | 3.0 | 6.0 | 0.00 | 0.25 | 0.00 | 31 | 1016.8 |
| 20260509224503 | 64 | 169 | 3.0 | 6.0 | 0.00 | 0.25 | 0.00 | 39 | 1016.6 |
| 20260509223603 | 64 | 177 | 2.0 | 10.0 | 0.00 | 0.25 | 0.00 | 38 | 1017.0 |
| 20260509222703 | 64 | 172 | 3.0 | 10.0 | 0.00 | 0.25 | 0.00 | 34 | 1017.1 |
| 20260509221803 | 64 | 173 | 3.0 | 10.0 | 0.00 | 0.25 | 0.00 | 37 | 1017.1 |
| 20260509220903 | 64 | 170 | 3.0 | 10.0 | 0.00 | 0.25 | 0.00 | 36 | 1017.2 |
| 20260509220003 | 64 | 184 | 2.0 | 5.0 | 0.00 | 0.25 | 0.00 | 38 | 1017.5 |
| 20260509215403 | 64 | 173 | 3.0 | 7.0 | 0.00 | 0.25 | 0.00 | 36 | 1017.5 |
| 20260509214718 | 64 | 158 | 3.0 | 7.0 | 0.00 | 0.25 | 0.00 | 33 | 1017.5 |
| 20260509213817 | 65 | 166 | 3.0 | 7.0 | 0.00 | 0.25 | 0.00 | 36 | 1017.2 |
| 20260509212703 | 65 | 186 | 3.0 | 7.0 | 0.00 | 0.25 | 0.00 | 32 | 1017.2 |
| 20260509211803 | 66 | 168 | 5.0 | 13.0 | 0.00 | 0.25 | 0.00 | 29 | 1017.6 |
| 20260509211117 | 65 | 169 | 4.0 | 13.0 | 0.00 | 0.25 | 0.00 | 33 | 1017.4 |
| 20260509210003 | 65 | 168 | 5.0 | 11.0 | 0.00 | 0.25 | 0.00 | 32 | 1017.9 |
| 20260509205403 | 65 | 176 | 4.0 | 13.0 | 0.00 | 0.25 | 0.00 | 29 | 1017.8 |
| 20260509204503 | 65 | 168 | 4.0 | 9.0 | 0.00 | 0.25 | 0.00 | 38 | 1017.8 |
| 20260509203603 | 64 | 172 | 4.0 | 10.0 | 0.00 | 0.25 | 0.00 | 38 | 1018.0 |
| 20260509202703 | 64 | 182 | 3.0 | 7.0 | 0.00 | 0.25 | 0.00 | 44 | 1017.9 |
| 20260509202017 | 64 | 175 | 3.0 | 14.0 | 0.00 | 0.25 | 0.00 | 38 | 1018.1 |
| 20260509200903 | 63 | 184 | 3.0 | 9.0 | 0.00 | 0.25 | 0.00 | 44 | 1017.9 |
| 20260509200003 | 63 | 170 | 4.0 | 10.0 | 0.00 | 0.25 | 0.00 | 43 | 1018.4 |
| 20260509195403 | 63 | 172 | 4.0 | 11.0 | 0.00 | 0.25 | 0.00 | 39 | 1018.3 |
| 20260509194503 | 62 | 168 | 5.0 | 16.0 | 0.00 | 0.25 | 0.00 | 40 | 1018.4 |
| 20260509193603 | 63 | 168 | 5.0 | 14.0 | 0.00 | 0.25 | 0.00 | 51 | 1018.0 |
| 20260509192703 | 63 | 161 | 6.0 | 14.0 | 0.00 | 0.25 | 0.00 | 46 | 1017.9 |
| 20260509191803 | 62 | 174 | 4.0 | 12.0 | 0.00 | 0.25 | 0.00 | 48 | 1018.3 |
| 20260509190903 | 62 | 177 | 4.0 | 9.0 | 0.00 | 0.25 | 0.00 | 55 | 1018.3 |
| 20260509190003 | 62 | 172 | 4.0 | 8.0 | 0.00 | 0.25 | 0.00 | 54 | 1018.1 |
| 20260509185403 | 62 | 167 | 4.0 | 11.0 | 0.00 | 0.25 | 0.00 | 55 | 1018.3 |
| 20260509184503 | 62 | 157 | 4.0 | 12.0 | 0.00 | 0.25 | 0.00 | 49 | 1018.5 |
| 20260509183603 | 61 | 164 | 5.0 | 10.0 | 0.00 | 0.25 | 0.00 | 56 | 1018.4 |
| 20260509182703 | 60 | 166 | 4.0 | 10.0 | 0.00 | 0.25 | 0.00 | 58 | 1018.3 |
| 20260509182017 | 60 | 161 | 4.0 | 10.0 | 0.00 | 0.25 | 0.00 | 64 | 1018.4 |
| 20260509180903 | 58 | 162 | 4.0 | 12.0 | 0.00 | 0.25 | 0.00 | 56 | 1018.5 |
| 20260509180217 | 58 | 153 | 4.0 | 12.0 | 0.00 | 0.25 | 0.00 | 64 | 1018.5 |
| 20260509175404 | 57 | 140 | 3.0 | 10.0 | 0.00 | 0.25 | 0.00 | 59 | 1018.6 |
| 20260509174503 | 56 | 153 | 2.0 | 5.0 | 0.00 | 0.25 | 0.00 | 64 | 1018.7 |
| 20260509173603 | 56 | 149 | 2.0 | 6.0 | 0.00 | 0.25 | 0.00 | 65 | 1018.5 |
| 20260509172703 | 55 | 157 | 2.0 | 6.0 | 0.00 | 0.25 | 0.00 | 71 | 1018.7 |
| 20260509171803 | 54 | 156 | 3.0 | 7.0 | 0.00 | 0.25 | 0.00 | 68 | 1018.7 |
| 20260509170903 | 54 | 157 | 3.0 | 6.0 | 0.00 | 0.25 | 0.00 | 77 | 1019.0 |
| 20260509170217 | 54 | 165 | 3.0 | 6.0 | 0.00 | 0.25 | 0.00 | 74 | 1018.9 |
| 20260509165404 | 54 | 169 | 3.0 | 6.0 | 0.00 | 0.25 | 0.00 | 72 | 1019.0 |
| 20260509164503 | 53 | 161 | 3.0 | 6.0 | 0.00 | 0.25 | 0.00 | 72 | 1018.8 |
| 20260509163604 | 52 | 160 | 3.0 | 6.0 | 0.00 | 0.25 | 0.00 | 80 | 1019.0 |
| 20260509162703 | 52 | 165 | 3.0 | 6.0 | 0.00 | 0.25 | 0.00 | 81 | 1019.0 |
| 20260509161803 | 51 | 165 | 3.0 | 6.0 | 0.00 | 0.25 | 0.00 | 80 | 1018.9 |
| 20260509160903 | 51 | 170 | 3.0 | 6.0 | 0.00 | 0.25 | 0.00 | 85 | 1019.2 |
| 20260509160003 | 50 | 172 | 3.0 | 6.0 | 0.00 | 0.25 | 0.00 | 86 | 1019.3 |
| 20260509155403 | 50 | 174 | 3.0 | 6.0 | 0.00 | 0.25 | 0.00 | 86 | 1019.2 |
| 20260509154717 | 49 | 167 | 3.0 | 6.0 | 0.00 | 0.25 | 0.00 | 87 | 1019.0 |
| 20260509153603 | 48 | 159 | 3.0 | 6.0 | 0.00 | 0.25 | 0.00 | 87 | 1019.3 |
| 20260509152703 | 48 | 156 | 2.0 | 5.0 | 0.00 | 0.25 | 0.00 | 90 | 1019.2 |
| 20260509151803 | 47 | 147 | 2.0 | 5.0 | 0.00 | 0.25 | 0.00 | 91 | 1019.2 |
| 20260509150903 | 46 | 160 | 2.0 | 5.0 | 0.00 | 0.25 | 0.00 | 92 | 1019.0 |
| 20260509150003 | 45 | 155 | 2.0 | 6.0 | 0.00 | 0.25 | 0.00 | 94 | 1019.2 |
| 20260509145403 | 44 | 153 | 2.0 | 6.0 | 0.00 | 0.25 | 0.00 | 94 | 1019.2 |
| 20260509144503 | 43 | 158 | 2.0 | 6.0 | 0.00 | 0.25 | 0.00 | 94 | 1019.5 |
| 20260509143603 | 43 | 163 | 2.0 | 4.0 | 0.00 | 0.25 | 0.00 | 94 | 1019.5 |
| 20260509142703 | 42 | 171 | 2.0 | 4.0 | 0.00 | 0.25 | 0.00 | 94 | 1019.0 |
| 20260509141803 | 42 | 172 | 2.0 | 5.0 | 0.00 | 0.25 | 0.00 | 94 | 1019.3 |
| 20260509140903 | 41 | 173 | 2.0 | 5.0 | 0.00 | 0.25 | 0.00 | 95 | 1019.3 |
| 20260509140003 | 41 | 163 | 2.0 | 4.0 | 0.00 | 0.25 | 0.00 | 95 | 1019.0 |
| 20260509135403 | 40 | 159 | 2.0 | 4.0 | 0.00 | 0.25 | 0.00 | 95 | 1019.2 |
| 20260509134717 | 39 | 169 | 1.0 | 3.0 | 0.00 | 0.25 | 0.00 | 95 | 1019.2 |
| 20260509133603 | 39 | 167 | 1.0 | 3.0 | 0.00 | 0.25 | 0.00 | 95 | 1019.0 |
| 20260509132917 | 39 | 146 | 2.0 | 6.0 | 0.00 | 0.25 | 0.00 | 95 | 1019.2 |
| 20260509131803 | 38 | 152 | 1.0 | 3.0 | 0.00 | 0.25 | 0.00 | 95 | 1019.2 |
| 20260509131118 | 38 | 157 | 1.0 | 2.0 | 0.00 | 0.25 | 0.00 | 95 | 1018.9 |
| 20260509130003 | 37 | 119 | 1.0 | 2.0 | 0.00 | 0.25 | 0.00 | 95 | 1018.9 |
| 20260509125403 | 37 | 130 | 1.0 | 6.0 | 0.00 | 0.25 | 0.00 | 95 | 1019.2 |
| 20260509124503 | 37 | 135 | 1.0 | 4.0 | 0.00 | 0.25 | 0.00 | 95 | 1018.8 |
| 20260509123603 | 36 | 112 | 1.0 | 4.0 | 0.00 | 0.25 | 0.00 | 95 | 1018.7 |
| 20260509122704 | 36 | 110 | 0.0 | 2.0 | 0.00 | 0.25 | 0.00 | 95 | 1018.8 |
| 20260509121804 | 36 | 99 | 0.0 | 1.0 | 0.00 | 0.25 | 0.00 | 95 | 1018.9 |
| 20260509121117 | 36 | 76 | 0.0 | 2.0 | 0.00 | 0.25 | 0.00 | 95 | 1019.0 |
| 20260509120004 | 36 | 103 | 0.0 | 2.0 | 0.00 | 0.25 | 0.00 | 95 | 1018.9 |
| 20260509115619 | 36 | 91 | 0.0 | 2.0 | 0.00 | 0.25 | 0.00 | 95 | 1019.0 |
| 20260509114503 | 36 | 107 | 0.0 | 2.0 | 0.00 | 0.25 | 0.00 | 95 | 1018.8 |
| 20260509113603 | 36 | 37 | 0.0 | 3.0 | 0.00 | 0.25 | 0.00 | 95 | 1018.7 |
| 20260509112704 | 37 | 33 | 0.0 | 2.0 | 0.00 | 0.25 | 0.00 | 95 | 1018.8 |
| 20260509111803 | 37 | 39 | 0.0 | 2.0 | 0.00 | 0.25 | 0.00 | 95 | 1019.0 |
| 20260509110903 | 37 | 127 | 0.0 | 2.0 | 0.00 | 0.25 | 0.00 | 94 | 1018.6 |
| 20260509110003 | 38 | 110 | 0.0 | 3.0 | 0.00 | 0.25 | 0.00 | 94 | 1018.7 |
| 20260509105403 | 38 | 158 | 1.0 | 3.0 | 0.00 | 0.25 | 0.00 | 94 | 1018.6 |
| 20260509104503 | 38 | 121 | 1.0 | 4.0 | 0.00 | 0.25 | 0.00 | 94 | 1018.8 |
| 20260509103817 | 38 | 128 | 1.0 | 3.0 | 0.00 | 0.25 | 0.00 | 94 | 1018.6 |
| 20260509102703 | 38 | 56 | 0.0 | 2.0 | 0.00 | 0.25 | 0.00 | 95 | 1018.7 |
| 20260509101803 | 38 | 114 | 0.0 | 3.0 | 0.00 | 0.25 | 0.00 | 95 | 1018.6 |
| 20260509100903 | 38 | 111 | 1.0 | 3.0 | 0.00 | 0.25 | 0.00 | 95 | 1018.5 |
| 20260509100004 | 38 | 122 | 1.0 | 2.0 | 0.00 | 0.25 | 0.00 | 95 | 1018.3 |
| 20260509095403 | 38 | 127 | 0.0 | 3.0 | 0.00 | 0.25 | 0.00 | 94 | 1018.5 |
| 20260509094503 | 38 | 98 | 0.0 | 2.0 | 0.00 | 0.25 | 0.00 | 95 | 1018.4 |
| 20260509093603 | 38 | 74 | 0.0 | 2.0 | 0.00 | 0.25 | 0.00 | 95 | 1018.4 |
| 20260509092703 | 38 | 39 | 0.0 | 2.0 | 0.00 | 0.25 | 0.00 | 95 | 1018.4 |
| 20260509091803 | 38 | 31 | 0.0 | 2.0 | 0.00 | 0.25 | 0.00 | 94 | 1018.4 |
| 20260509091118 | 39 | 56 | 0.0 | 2.0 | 0.00 | 0.24 | 0.00 | 94 | 1018.0 |
| 20260509090003 | 39 | 58 | 0.0 | 3.0 | 0.00 | 0.24 | 0.00 | 95 | 1018.0 |
| 20260509085617 | 39 | 143 | 1.0 | 4.0 | 0.00 | 0.24 | 0.00 | 95 | 1018.1 |
| 20260509084503 | 39 | 92 | 1.0 | 3.0 | 0.00 | 0.24 | 0.00 | 94 | 1017.8 |
| 20260509083603 | 39 | 51 | 0.0 | 2.0 | 0.00 | 0.24 | 0.00 | 94 | 1018.0 |
| 20260509082703 | 39 | 46 | 1.0 | 3.0 | 0.00 | 0.24 | 0.00 | 94 | 1018.0 |
| 20260509082017 | 39 | 63 | 0.0 | 2.0 | 0.00 | 0.24 | 0.00 | 94 | 1018.0 |
| 20260509080904 | 40 | 23 | 1.0 | 2.0 | 0.00 | 0.24 | 0.00 | 94 | 1017.9 |